Zurück zum Katalog

COSMOS 1604

AktivMilitärHEO
NORAD 15350·PAYLOAD·🇷🇺 Russia

Gestartet Oct 4, 1984 von Plesetsk Cosmodrome

Loading…

Nächste Überflüge (nächste 24 Stunden)

TLE

AktuellSource: Space-Track

Epoche: Sep 8, 2026, 09:45 UTC

1 15350U 84107A   26251.40672565  .00000307  00000-0  00000-0 0  9995
2 15350  72.5590 352.9933 5392570 322.6126   9.9637  2.00830522307052

Verfolge COSMOS 1604 in Echtzeit mit AllMySat

Download on the App Store